N7YET Weather Reports


time (UTC)temp
C
wind
direction
speed
KPH
gust
KPH
rain 1hr
cm
rain 24hr
cm
rain mn
cm
humidity
%
barometer
mb
20260502225038 22 277 4.8 19.3 0.00 0.00 0.00 7 1231.9
20260502224037 22 275 14.5 24.1 0.00 0.00 0.00 6 1231.9
20260502223037 22 281 11.3 20.9 0.00 0.00 0.00 8 1231.9
20260502222036 22 282 12.9 20.9 0.00 0.00 0.00 7 1231.9
20260502221036 22 262 11.3 20.9 0.00 0.00 0.00 7 1231.9
20260502220035 22 240 8.0 24.1 0.00 0.00 0.00 7 1231.9
20260502215034 22 274 11.3 24.1 0.00 0.00 0.00 7 1231.9
20260502214034 22 235 11.3 24.1 0.00 0.00 0.00 7 1231.9
20260502213033 22 279 11.3 20.9 0.00 0.00 0.00 7 1231.9
20260502212032 21 253 8.0 17.7 0.00 0.00 0.00 8 1231.9
20260502211032 21 275 4.8 12.9 0.00 0.00 0.00 9 1231.9
20260502210031 22 216 9.7 19.3 0.00 0.00 0.00 9 1231.9
20260502205030 22 206 11.3 20.9 0.00 0.00 0.00 10 1231.9
20260502204030 21 219 11.3 24.1 0.00 0.00 0.00 9 1231.9
20260502203029 22 211 11.3 24.1 0.00 0.00 0.00 10 1231.9
20260502202029 21 330 3.2 11.3 0.00 0.00 0.00 11 1231.9
20260502201029 21 263 12.9 24.1 0.00 0.00 0.00 10 1231.9
20260502200027 21 331 4.8 9.7 0.00 0.00 0.00 12 1231.9
20260502195027 20 298 4.8 16.1 0.00 0.00 0.00 12 1231.9
20260502194026 20 240 11.3 16.1 0.00 0.00 0.00 11 1231.9
20260502193025 20 234 6.4 19.3 0.00 0.00 0.00 11 1231.9
20260502192025 20 257 8.0 12.9 0.00 0.00 0.00 12 1231.9
20260502191024 20 237 11.3 16.1 0.00 0.00 0.00 11 1231.9
20260502190024 20 206 12.9 20.9 0.00 0.00 0.00 16 1231.9
20260502185023 19 263 4.8 12.9 0.00 0.00 0.00 16 1231.9
20260502184022 18 270 8.0 16.1 0.00 0.00 0.00 18 1231.9
20260502183021 18 245 9.7 16.1 0.00 0.00 0.00 20 1231.9
20260502182021 18 195 8.0 16.1 0.00 0.00 0.00 20 1231.9
20260502181020 18 271 6.4 16.1 0.00 0.00 0.00 19 1231.9
20260502164014 14 335 3.2 9.7 0.00 0.00 0.00 27 1231.9
20260502163014 14 291 4.8 9.7 0.00 0.00 0.00 28 1231.9
20260502162013 13 278 1.6 9.7 0.00 0.00 0.00 30 1231.9
20260502161013 12 227 1.6 6.4 0.00 0.00 0.00 30 1231.9
20260502152010 11 227 0.0 6.4 0.00 0.00 0.00 33 1231.9
20260502151009 10 211 4.8 8.0 0.00 0.00 0.00 34 1231.9
20260502122959 1 0 0.0 0.0 0.00 0.00 0.00 35 1231.9
20260502121958 2 0 0.0 0.0 0.00 0.00 0.00 35 1231.9
20260502120957 2 0 0.0 0.0 0.00 0.00 0.00 35 1231.9
20260502114956 2 156 4.8 6.4 0.00 0.00 0.00 35 1231.9
20260502113956 2 153 3.2 8.0 0.00 0.00 0.00 35 1231.9
20260502112955 2 158 8.0 9.7 0.00 0.00 0.00 35 1231.9
20260502111955 2 165 6.4 8.0 0.00 0.00 0.00 35 1231.9
20260502110954 2 186 8.0 9.7 0.00 0.00 0.00 35 1231.9
20260502105953 2 190 8.0 11.3 0.00 0.00 0.00 36 1231.9
20260502104953 2 174 3.2 11.3 0.00 0.00 0.00 37 1231.9
20260502103952 2 0 0.0 0.0 0.00 0.00 0.00 36 1231.9
20260502102951 2 179 0.0 6.4 0.00 0.00 0.00 36 1231.9
20260502101951 2 196 3.2 6.4 0.00 0.00 0.00 36 1231.9
20260502100950 1 0 0.0 0.0 0.00 0.00 0.00 35 1231.9
20260502090947 3 183 0.0 4.8 0.00 0.00 0.00 33 1231.9
20260502070941 6 208 9.7 12.9 0.00 0.00 0.00 33 1231.9
20260502065940 6 169 14.5 19.3 0.00 0.00 0.00 33 1231.9
20260502064939 6 162 14.5 20.9 0.00 0.00 0.00 33 1231.9
20260502063939 6 161 14.5 17.7 0.00 0.00 0.00 33 1231.9
20260502062938 7 166 16.1 17.7 0.00 0.00 0.00 33 1231.9
20260502061938 7 163 16.1 19.3 0.00 0.00 0.00 33 1231.9
20260502060937 7 163 16.1 20.9 0.00 0.00 0.00 33 1231.9
20260502055937 7 163 16.1 20.9 0.00 0.00 0.00 33 1231.9
20260502054936 7 161 16.1 20.9 0.00 0.00 0.00 33 1231.9
20260502053936 7 156 16.1 19.3 0.00 0.00 0.00 33 1231.9
20260502052935 7 159 16.1 22.5 0.00 0.00 0.00 32 1231.9
20260502051934 7 161 17.7 24.1 0.00 0.00 0.00 32 1231.9
20260502050934 7 159 17.7 24.1 0.00 0.00 0.00 31 1231.9
20260502045933 7 157 17.7 20.9 0.00 0.00 0.00 31 1231.9
20260502044933 7 163 16.1 20.9 0.00 0.00 0.00 30 1231.9
20260502043932 7 166 17.7 22.5 0.00 0.00 0.00 28 1231.9
20260502042931 8 163 17.7 20.9 0.00 0.00 0.00 24 1231.9
20260502041931 10 163 14.5 19.3 0.00 0.00 0.00 20 1231.9
20260502040930 10 165 12.9 16.1 0.00 0.00 0.00 18 1231.9
20260502035930 10 163 11.3 16.1 0.00 0.00 0.00 18 1231.9
20260502034929 11 148 14.5 17.7 0.00 0.00 0.00 17 1231.9
20260502033928 11 161 12.9 16.1 0.00 0.00 0.00 16 1231.9
20260502032928 12 153 11.3 14.5 0.00 0.00 0.00 16 1231.9
20260502031927 12 143 11.3 12.9 0.00 0.00 0.00 15 1231.9
20260502030926 12 141 12.9 12.9 0.00 0.00 0.00 15 1231.9
20260502025926 13 141 11.3 14.5 0.00 0.00 0.00 16 1231.9
20260502024925 13 139 12.9 14.5 0.00 0.00 0.00 16 1231.9
20260502023925 13 140 12.9 12.9 0.00 0.00 0.00 16 1231.9
20260502022924 15 138 12.9 16.1 0.00 0.00 0.00 16 1231.9
20260502021923 16 138 11.3 12.9 0.00 0.00 0.00 14 1231.9
20260502020923 17 143 8.0 11.3 0.00 0.00 0.00 12 1231.9
20260502015922 17 133 6.4 8.0 0.00 0.00 0.00 11 1231.9
20260502014922 18 123 4.8 8.0 0.00 0.00 0.00 9 1231.9
20260502013921 18 117 3.2 6.4 0.00 0.00 0.00 9 1231.9
20260502012920 18 160 1.6 6.4 0.00 0.00 0.00 9 1231.9
20260502011919 19 160 4.8 8.0 0.00 0.00 0.00 9 1231.9
20260502010919 19 150 4.8 8.0 0.00 0.00 0.00 9 1231.9
20260502005918 19 146 4.8 12.9 0.00 0.00 0.00 9 1231.9
20260502004918 19 164 4.8 11.3 0.00 0.00 0.00 9 1231.9
20260502003917 19 83 1.6 8.0 0.00 0.00 0.00 9 1231.9
20260502002917 19 333 0.0 6.4 0.00 0.00 0.00 9 1231.9
20260502001916 19 300 3.2 9.7 0.00 0.00 0.00 9 1231.9
20260502000915 20 270 1.6 6.4 0.00 0.00 0.00 9 1231.9
20260501235914 20 153 1.6 9.7 0.00 0.00 0.00 9 1231.9
20260501234914 20 111 3.2 9.7 0.00 0.00 0.00 9 1231.9
20260501233913 20 125 6.4 11.3 0.00 0.00 0.00 9 1231.9
20260501232913 20 104 4.8 11.3 0.00 0.00 0.00 9 1231.9
20260501231912 20 126 3.2 8.0 0.00 0.00 0.00 9 1231.9
20260501230911 20 130 9.7 16.1 0.00 0.00 0.00 10 1231.9
20260501225911 19 117 6.4 9.7 0.00 0.00 0.00 10 1231.9